TimeCDT,TemperatureF,Dew PointF,Humidity,Sea Level PressureIn,VisibilityMPH,Wind Direction,Wind SpeedMPH,Gust SpeedMPH,PrecipitationIn,Events,Conditions,WindDirDegrees,DateUTC
12:14 AM,37.4,26.6,65,30.37,10.0,ENE,10.4,-,N/A,,Overcast,70,2013-10-29 05:14:00
12:33 AM,37.4,26.6,65,30.37,10.0,East,12.7,-,N/A,,Overcast,80,2013-10-29 05:33:00
12:54 AM,37.4,26.6,65,30.38,10.0,ENE,9.2,-,N/A,,Mostly Cloudy,70,2013-10-29 05:54:00
1:13 AM,35.6,26.6,70,30.39,10.0,ENE,8.1,-,N/A,,Scattered Clouds,70,2013-10-29 06:13:00
1:34 AM,35.6,26.6,70,30.39,10.0,ENE,10.4,-,N/A,,Scattered Clouds,60,2013-10-29 06:34:00
1:54 AM,35.6,26.6,70,30.39,10.0,ENE,8.1,-,N/A,,Scattered Clouds,60,2013-10-29 06:54:00
2:13 AM,35.6,26.6,70,30.40,10.0,ENE,8.1,-,N/A,,Scattered Clouds,60,2013-10-29 07:13:00
2:34 AM,35.6,26.6,70,30.38,10.0,ENE,11.5,-,N/A,,Scattered Clouds,60,2013-10-29 07:34:00
2:53 AM,35.6,28.4,75,30.37,10.0,NE,10.4,-,N/A,,Scattered Clouds,50,2013-10-29 07:53:00
3:14 AM,35.6,26.6,70,30.36,10.0,ENE,10.4,-,N/A,,Scattered Clouds,60,2013-10-29 08:14:00
3:33 AM,35.6,26.6,70,30.35,10.0,NE,11.5,-,N/A,,Scattered Clouds,50,2013-10-29 08:33:00
3:53 AM,35.6,26.6,70,30.34,10.0,ENE,10.4,-,N/A,,Scattered Clouds,60,2013-10-29 08:53:00
4:14 AM,35.6,28.4,75,30.34,10.0,ENE,9.2,-,N/A,,Mostly Cloudy,60,2013-10-29 09:14:00
4:33 AM,35.6,28.4,75,30.33,10.0,NE,8.1,-,N/A,,Mostly Cloudy,40,2013-10-29 09:33:00
4:53 AM,35.6,28.4,75,30.33,10.0,NE,9.2,-,N/A,,Scattered Clouds,40,2013-10-29 09:53:00
5:14 AM,35.6,28.4,75,30.33,10.0,ENE,6.9,-,N/A,,Mostly Cloudy,60,2013-10-29 10:14:00
5:33 AM,35.6,28.4,75,30.34,10.0,ENE,5.8,-,N/A,,Mostly Cloudy,60,2013-10-29 10:33:00
5:54 AM,35.6,30.2,81,30.34,10.0,ENE,6.9,-,N/A,Snow,Light Snow,60,2013-10-29 10:54:00
6:13 AM,35.6,30.2,81,30.32,10.0,ENE,9.2,-,N/A,,Overcast,70,2013-10-29 11:13:00
6:34 AM,35.6,30.2,81,30.30,7.0,ENE,8.1,-,N/A,Snow,Light Snow,70,2013-10-29 11:34:00
6:54 AM,35.6,30.2,81,30.28,10.0,ENE,10.4,-,N/A,,Overcast,70,2013-10-29 11:54:00
7:14 AM,35.6,30.2,81,30.27,10.0,East,10.4,-,N/A,,Overcast,80,2013-10-29 12:14:00
7:34 AM,35.6,30.2,81,30.27,10.0,East,8.1,-,N/A,,Overcast,80,2013-10-29 12:34:00
7:53 AM,35.6,30.2,81,30.27,10.0,East,9.2,-,N/A,,Overcast,80,2013-10-29 12:53:00
8:14 AM,35.6,30.2,81,30.28,10.0,East,8.1,-,N/A,,Overcast,90,2013-10-29 13:14:00
8:34 AM,35.6,30.2,81,30.27,10.0,East,8.1,-,N/A,,Overcast,90,2013-10-29 13:34:00
8:53 AM,35.6,30.2,81,30.26,10.0,ENE,6.9,-,N/A,,Overcast,70,2013-10-29 13:53:00
9:14 AM,35.6,30.2,81,30.26,10.0,ENE,6.9,-,N/A,,Overcast,70,2013-10-29 14:14:00
9:34 AM,35.6,30.2,81,30.25,10.0,East,9.2,-,N/A,,Overcast,80,2013-10-29 14:34:00
9:53 AM,37.4,30.2,75,30.25,10.0,East,9.2,-,N/A,,Overcast,90,2013-10-29 14:53:00
10:14 AM,37.4,30.2,75,30.25,10.0,East,8.1,-,N/A,,Overcast,90,2013-10-29 15:14:00
10:34 AM,37.4,30.2,75,30.25,10.0,East,6.9,-,N/A,,Overcast,80,2013-10-29 15:34:00
10:53 AM,37.4,30.2,75,30.24,10.0,East,6.9,-,N/A,,Overcast,80,2013-10-29 15:53:00
11:13 AM,37.4,30.2,75,30.23,10.0,East,10.4,-,N/A,,Scattered Clouds,80,2013-10-29 16:13:00
11:34 AM,37.4,30.2,75,30.23,10.0,ENE,9.2,-,N/A,,Light Drizzle,70,2013-10-29 16:34:00
11:53 AM,37.4,30.2,75,30.23,10.0,ENE,6.9,-,N/A,,Mostly Cloudy,60,2013-10-29 16:53:00
12:14 PM,37.4,32.0,81,30.21,10.0,ENE,8.1,-,N/A,,Scattered Clouds,70,2013-10-29 17:14:00
12:33 PM,37.4,32.0,81,30.21,10.0,NE,8.1,-,N/A,,Mostly Cloudy,50,2013-10-29 17:33:00
12:53 PM,37.4,32.0,81,30.21,10.0,ENE,6.9,-,N/A,,Overcast,60,2013-10-29 17:53:00
1:14 PM,37.4,33.8,87,30.19,10.0,ENE,9.2,-,N/A,,Overcast,60,2013-10-29 18:14:00
1:33 PM,39.2,33.8,81,30.19,10.0,ENE,8.1,-,N/A,,Mostly Cloudy,70,2013-10-29 18:33:00
1:53 PM,39.2,33.8,81,30.18,10.0,ENE,8.1,-,N/A,,Mostly Cloudy,60,2013-10-29 18:53:00
2:14 PM,39.2,33.8,81,30.17,10.0,ENE,9.2,-,N/A,,Drizzle,60,2013-10-29 19:14:00
2:33 PM,37.4,35.6,93,30.17,10.0,NE,8.1,-,N/A,Rain,Light Rain,50,2013-10-29 19:33:00
2:53 PM,37.4,35.6,93,30.15,10.0,NE,8.1,-,N/A,Rain,Light Rain,50,2013-10-29 19:53:00
3:14 PM,37.4,35.6,93,30.14,10.0,ENE,9.2,-,N/A,,Scattered Clouds,70,2013-10-29 20:14:00
3:33 PM,39.2,35.6,87,30.13,10.0,ENE,8.1,-,N/A,,Clear,70,2013-10-29 20:33:00
3:53 PM,39.2,35.6,87,30.12,10.0,ENE,9.2,-,N/A,,Light Drizzle,70,2013-10-29 20:53:00
4:13 PM,39.2,35.6,87,30.11,10.0,ENE,10.4,-,N/A,,Scattered Clouds,70,2013-10-29 21:13:00
4:33 PM,39.2,35.6,87,30.11,10.0,East,9.2,-,N/A,,Clear,80,2013-10-29 21:33:00
4:54 PM,39.2,35.6,87,30.11,10.0,East,9.2,-,N/A,,Scattered Clouds,80,2013-10-29 21:54:00
5:13 PM,39.2,35.6,87,30.11,10.0,East,10.4,-,N/A,,Mostly Cloudy,80,2013-10-29 22:13:00
5:34 PM,39.2,35.6,87,30.11,10.0,East,8.1,-,N/A,,Scattered Clouds,90,2013-10-29 22:34:00
5:54 PM,39.2,35.6,87,30.10,10.0,East,8.1,-,N/A,,Scattered Clouds,90,2013-10-29 22:54:00
6:13 PM,39.2,35.6,87,30.10,10.0,East,8.1,-,N/A,,Mostly Cloudy,80,2013-10-29 23:13:00
6:33 PM,39.2,35.6,87,30.09,10.0,East,8.1,-,N/A,,Scattered Clouds,100,2013-10-29 23:33:00
6:54 PM,39.2,35.6,87,30.10,10.0,East,6.9,-,N/A,,Scattered Clouds,80,2013-10-29 23:54:00
7:13 PM,39.2,35.6,87,30.09,10.0,East,9.2,-,N/A,,Clear,80,2013-10-30 00:13:00
7:33 PM,39.2,35.6,87,30.10,10.0,East,6.9,-,N/A,,Scattered Clouds,80,2013-10-30 00:33:00
7:53 PM,39.2,35.6,87,30.09,10.0,East,9.2,-,N/A,,Scattered Clouds,80,2013-10-30 00:53:00
8:13 PM,39.2,35.6,87,30.09,10.0,East,5.8,-,N/A,,Scattered Clouds,90,2013-10-30 01:13:00
8:34 PM,39.2,35.6,87,30.10,10.0,East,6.9,-,N/A,,Clear,80,2013-10-30 01:34:00
8:53 PM,39.2,35.6,87,30.10,10.0,East,5.8,-,N/A,,Scattered Clouds,80,2013-10-30 01:53:00
9:13 PM,39.2,35.6,87,30.10,10.0,ENE,4.6,-,N/A,,Mostly Cloudy,70,2013-10-30 02:13:00
9:33 PM,39.2,35.6,87,30.10,10.0,ENE,5.8,-,N/A,,Mostly Cloudy,70,2013-10-30 02:33:00
9:54 PM,39.2,35.6,87,30.09,10.0,ENE,3.5,-,N/A,,Scattered Clouds,60,2013-10-30 02:54:00
10:14 PM,39.2,35.6,87,30.09,7.0,East,5.8,-,N/A,,Scattered Clouds,80,2013-10-30 03:14:00
10:33 PM,39.2,35.6,87,30.09,5.0,ENE,4.6,-,N/A,,Scattered Clouds,70,2013-10-30 03:33:00
10:54 PM,37.4,35.6,93,30.09,5.0,NE,4.6,-,N/A,,Clear,50,2013-10-30 03:54:00
11:14 PM,37.4,35.6,93,30.08,7.0,NE,3.5,-,N/A,,Clear,50,2013-10-30 04:14:00
11:33 PM,37.4,35.6,93,30.08,2.0,NNE,4.6,-,N/A,,Mist,20,2013-10-30 04:33:00
11:54 PM,37.4,37.4,100,30.08,2.5,NNE,3.5,-,N/A,,Mist,30,2013-10-30 04:54:00